Location: Tamazert
(32.6352°N, 5.2072°W)
Time: 04:58:11
(UTC+00:00)

Vanguard 2 - Pass Details

Date: 11 October 2022
Orbit: 553 x 2933 km, 32.9° (Epoch: 26 November)

Event Time Altitude Azimuth Distance (km) Brightness Sun altitude
Rises 15:07:50 0° 282° (WNW) 4,808 12.2 31.5°
Reaches altitude 10° 15:10:33 10° 280° (W) 4,089 12.0 31.0°
Maximum altitude 15:22:19 71° 200° (SSW) 2,520 10.9 29.0°
Drops below altitude 10° 15:39:35 10° 120° (ESE) 5,736 11.7 25.8°
Sets 15:44:12 0° 119° (ESE) 6,778 12.0 24.9°
